Date,TemperatureHighF,TemperatureAvgF,TemperatureLowF,DewpointHighF,DewpointAvgF,DewpointLowF,HumidityHigh,HumidityAvg,HumidityLow,PressureMaxIn,PressureMinIn,WindSpeedMaxMPH,WindSpeedAvgMPH,GustSpeedMaxMPH,PrecipitationSumIn
2013-1-1,36.5,30.0,26.0,33.1,22.7,17.7,90,74,68,30.19,30.05,14,2,14,0.01
2013-1-2,28.2,26.0,22.2,21.8,19.0,15.0,86,74,66,30.33,30.16,15,2,16,0.00
2013-1-3,33.8,26.3,19.3,28.8,20.0,13.3,88,77,67,30.31,30.16,17,2,17,0.00
2013-1-4,35.4,32.1,29.8,28.4,23.1,19.3,82,70,55,30.29,30.12,20,5,20,0.00
2013-1-5,36.0,32.6,30.3,28.2,25.8,24.5,81,76,69,30.44,30.18,7,1,12,0.00
2013-1-6,38.9,36.8,35.6,33.7,31.6,27.9,90,82,73,30.29,30.02,17,2,17,0.15
2013-1-7,38.4,35.0,31.1,32.8,28.6,25.3,87,77,65,30.52,30.29,10,1,15,0.01
2013-1-8,41.7,35.0,27.3,29.8,26.8,23.1,84,72,59,30.40,30.32,6,1,13,0.00
2013-1-9,50.2,42.3,35.4,38.7,32.3,29.0,84,68,51,30.54,30.19,20,5,24,0.04
2013-1-10,42.9,36.5,28.0,36.3,30.2,25.5,93,78,65,30.70,30.35,4,0,5,0.00
2013-1-11,53.4,48.6,39.1,50.2,41.5,28.9,94,78,52,30.35,29.87,15,3,18,0.25
2013-1-12,61.8,55.0,49.1,55.3,51.5,47.2,95,88,77,30.08,29.94,12,1,12,0.01
2013-1-13,65.3,52.3,40.0,58.9,48.9,38.7,95,89,78,30.06,29.78,15,2,19,0.35
2013-1-14,40.0,33.7,30.7,38.7,27.8,23.2,95,79,71,30.54,30.06,17,2,19,0.00
2013-1-15,33.3,31.0,30.0,24.6,23.1,21.4,76,72,67,30.53,30.22,5,0,7,0.00
2013-1-16,38.5,34.6,30.9,29.5,26.0,22.5,82,71,58,30.23,29.95,15,1,20,0.00
2013-1-17,37.7,35.2,26.2,33.4,28.2,17.9,85,75,67,30.34,30.05,16,2,24,0.00
2013-1-18,37.2,28.6,22.5,22.0,16.8,10.0,72,61,52,30.58,30.16,18,3,21,0.00
2013-1-19,52.9,46.2,37.2,33.3,27.9,21.8,54,49,42,30.16,29.72,15,4,22,0.00
2013-1-20,51.3,32.0,25.3,35.3,20.5,13.3,73,62,51,30.25,29.68,28,8,34,0.00
2013-1-21,25.3,21.2,14.8,18.9,15.6,7.9,88,79,61,30.23,30.01,17,3,20,0.00
2013-1-22,16.2,13.0,10.7,9.5,5.6,1.5,83,72,65,30.36,30.14,25,8,25,0.00
2013-1-23,16.8,15.0,13.6,12.8,9.4,4.4,85,78,62,30.37,30.19,21,2,21,0.00
2013-1-24,22.0,19.2,14.7,16.9,10.9,6.5,87,70,54,30.68,30.19,11,1,14,0.04
2013-1-25,20.7,17.1,13.3,15.5,11.4,7.2,85,78,72,30.64,30.16,6,0,7,0.00
2013-1-26,28.4,24.1,19.3,23.8,19.5,15.5,89,82,73,30.55,30.18,6,0,9,0.04
2013-1-27,32.2,26.6,19.1,26.1,18.8,14.7,86,73,60,30.65,30.38,7,1,11,0.02
2013-1-28,51.1,40.6,30.0,49.1,38.4,26.3,96,92,86,30.37,29.98,15,2,20,0.46
2013-1-29,61.4,50.0,38.3,56.0,47.8,37.0,96,92,76,30.14,29.69,13,2,17,0.38
2013-1-30,64.8,58.7,39.3,56.1,52.7,35.8,94,81,69,29.69,29.18,27,4,28,0.56
2013-1-31,40.1,29.1,22.4,36.2,22.7,15.9,88,77,60,29.94,29.29,30,10,33,0.03